Rbgn^[z[y[W
メイン
   新天体発見情報
     Comet P/2005 J1 = P/2025 O1 (McNaught)
投稿するにはまず登録を

スレッド表示 | 新しいものから 前のトピック | 次のトピック | 下へ
投稿者 スレッド
佐藤裕久
投稿日時: 2025-8-19 9:56
モデレータ
登録日: 2005-6-12
居住地: 日本
投稿: 2697
オンライン
Comet P/2005 J1 = P/2025 O1 (McNaught)

P. Veres (小惑星センター)は、7月29日、この彗星は、チリのSan Pedro de Atacamaで、A. Mauryと
F. Signoretが0.28-m f/2.2 反射望遠鏡で得たCCD画像から、明らかに新しい小惑星状天体として偶然
発見されたと報告した。 
7月30日、Maury、G. AttardとSignoretは、同じ場所から、0.50-m f/4 反射望遠鏡で確認観測をした。
小惑星センターのNEOCP webpageに公表された後、数日間にわたり他の観測所から追加の確認観測データ
が届き、7月31日、小惑星センターはこの天体を彗星 P/2005 J1 (IAUC 8525参照)として同定し、その後
NEOCPから削除した。
NK 1382 (= ICQ's 2025 Comet Handbook)の中野主一氏の予報に対し、Delta(T)は、+0.11 dayであった。
MPC 79019のG. V. Williamsの予報に対する修正値は、Delta(T) = -0.38 dayであった。
彗星年表 2025の佐藤裕久の軌道要素に対する修正値は、Delta(T) = +0.12 dayであった。

検出位置は次のとおり(NEOCP 5GS2321)、

     2025 UT             R.A. (2000) Decl.       Mag.
     July 29.01519   14 18 58.32   -21 25 09.7   18.4
          29.02147   14 18 59.47   -21 25 02.3   18.8
          29.02773   14 19 00.60   -21 24 56.8   18.9
          30.03956   14 22 10.02   -21 07 41.3   20.0
          30.04516   14 22 11.04   -21 07 35.7   20.0
          30.05080   14 22 11.98   -21 07 29.2   19.9

MPCの連結軌道要素と位置推算表は次のとおり、

Orbital elements:
    P/2005 J1 (McNaught)                                                        
Epoch 2025 May 5.0 TT = JDT 2460800.5                                           
T 2025 July 11.25681 TT                                 Pike                    
q   1.5393148            (2000.0)            P               Q                  
n   0.14583131     Peri.  338.88243     -0.32540100     +0.78586800             
a   3.5746665      Node   268.83032     -0.77457204     -0.54051056             
e   0.5693823      Incl.   31.73334     -0.54235813     +0.30043272             
P   6.76                                                                        
From 114 observations 2005 May 3-2025 Aug. 7, mean residual 1".0.               
                                                                                
Ephemeris:
Date    TT    R. A. (2000) Decl.     Delta      r    Elong.  Phase   m1
2025 07 09    13 14 26.9 -27 50 37   0.9833  1.5395   100.7    40.5  18.3
...
2025 07 24    14 03 09.4 -22 54 03   1.0711  1.5451    95.5    40.9  18.5
...
2025 08 01    14 28 14.9 -20 34 58   1.1311  1.5545    92.7    40.7  18.7
...
2025 08 07    14 46 33.5 -19 00 08   1.1814  1.5644    90.6    40.4  18.8
2025 08 08    14 49 33.9 -18 45 06   1.1901  1.5663    90.2    40.3  18.8
2025 08 09    14 52 33.6 -18 30 17   1.1990  1.5682    89.9    40.3  18.8
...
2025 08 15    15 10 15.1 -17 05 56   1.2548  1.5813    87.8    39.8  19.0
...
2025 08 23    15 33 08.6 -15 24 53   1.3348  1.6022    85.0    39.0  19.2
...
2025 09 07    16 14 07.3 -12 45 12   1.4994  1.6512    79.8    36.9  19.6

(MPEC 2025-P120、CBET 5592、oaa-comet 8151)

スレッド表示 | 新しいものから 前のトピック | 次のトピック | トップ

投稿するにはまず登録を
 
© 1999 Tsutomu Seki.